Location: Laverne
(36.7100°N, 99.8930°W)
Time: 19:05:41
(UTC-06:00)

Cosmos 2218 Rocket - Pass Details

Date: 19 October 2017
Orbit: 956 x 1006 km, 82.9° (Epoch: 20 November)

Event Time Altitude Azimuth Distance (km) Brightness Sun altitude
Rises 06:31:29 0° 354° (N) 3,667 7.0 -16.6°
Reaches altitude 10° 06:33:59 10° 356° (N) 2,723 6.3 -16.1°
Maximum altitude 06:40:14 80° 83° (E) 1,000 4.1 -14.9°
Drops below altitude 10° 06:46:32 10° 171° (S) 2,741 6.5 -13.6°
Sets 06:49:04 0° 172° (S) 3,693 7.2 -13.1°
